Location: Eaglesham
(55.7833°N, 117.9000°W)
Time: 18:42:20
(UTC+00:00)

ISS - Pass Details

Date: 30 November 2021
Orbit: 413 x 422 km, 51.6° (Epoch: 23 January)

Event Time Altitude Azimuth Distance (km) Brightness Sun altitude
Rises 02:53:37 0° 271° (W) 2,384 1.4 -28.0°
Reaches altitude 10° 02:55:54 10° 260° (W) 1,515 0.0 -28.3°
Enters shadow 02:57:02 17° 247° (WSW) 1,139 -0.9 -28.5°
